Content
SEND FEEDBACK

Daily
Averages
Monthly
Summary
French Polynesia

PAPEETE, FRENCH POLYNESIA


Home > Oceania > French Polynesia
Elevation: 7 feet     Latitude: 17 33S     Longitude: 149 36W

WEATHER
 
SELECT A DAY
Number of Records: 208,245;   Date Range: 6/30/96 - 7/28/14
 
SHARE

PRINT THIS DATA

[ ← Previous Day ]
WEATHER ALMANAC - MARCH 23, 2013
[ Next Day → ]
[ °C ]   °F
Weather ElementAverageHighLow
Temperature82.2 °F89.6 °F (3:30 pm)75.2 °F (5:00 am)
Dewpoint71.3 °F73.4 °F (10:30 am)68 °F (3:30 pm)
Humidity69 %83 % (3:30 am)49 % (3:30 pm)
Barometer29.86 in29.92 in (8:30 am)29.80 in (2:30 pm)
Wind Speed5 mph15.7 mph (5:00 pm)
Weather ElementAverage
Visibility7.5 mi
Wind DirectionSE (132 °)

Weather ElementTotal
Precipitation---
Cooling Degree Days17.4 (Base 65)
Growing Degree Days32.4 (Base 50)
Averaged from 54 records on March 23, 2013
WEATHER CONDITIONS BREAKOUT
WIND DIRECTION BREAKOUT
WEATHER BY HOUR - MARCH 23, 2013
[ °C ]   °F
Local TimeTemperatureDewpointHumidityBarometerVisibilityWind DirectionWind SpeedGust SpeedPrecipitationEventsConditions
12:30 AM78.8 °F69.8 °F74 %29.89 in6.2 miVariable2.3 mphPartly Cloudy
1:00 AM78.8 °F71.6 °F78 %29.89 in6.2 miVariable3.5 mphPartly Cloudy
1:30 AM77.0 °F69.8 °F78 %29.86 in6.2 miEast (100°)3.5 mphPartly Cloudy
2:00 AM78.0 °F70.0 °F70 %29.88 in12.0 miEast (100°)4.5 mphScattered Clouds
2:00 AM77.0 °F69.8 °F78 %29.86 in6.2 miVariable2.3 mphPartly Cloudy
2:30 AM77.0 °F69.8 °F78 %29.86 in6.2 miVariable2.3 mphPartly Cloudy
3:00 AM78.8 °F71.6 °F78 %29.86 in6.2 miSSE (150°)3.5 mphPartly Cloudy
3:30 AM77.0 °F71.6 °F83 %29.86 in6.2 miVariable1.2 mph
4:00 AM77.0 °F71.6 °F83 %29.86 in6.2 miESE (110°)2.3 mph
4:30 AM77.0 °F69.8 °F78 %29.86 in6.2 miCalm
5:00 AM76.0 °F69.0 °F74 %29.86 in37.0 miEast (100°)6.7 mphClear
5:00 AM75.2 °F69.8 °F83 %29.86 in6.2 miEast (100°)3.5 mph
5:30 AM75.2 °F69.8 °F83 %29.86 in6.2 miEast (90°)3.5 mph
6:00 AM75.2 °F69.8 °F83 %29.86 in6.2 miEast (100°)3.5 mphPartly Cloudy
6:30 AM75.2 °F69.8 °F83 %29.89 in6.2 miEast (100°)4.6 mphPartly Cloudy
7:00 AM78.8 °F69.8 °F74 %29.89 in6.2 miEast (100°)2.3 mphPartly Cloudy
7:30 AM80.6 °F71.6 °F74 %29.89 in6.2 miCalmPartly Cloudy
8:00 AM83.0 °F72.0 °F61 %29.91 in12.0 miSSW (210°)1.2 mphPartly Cloudy
8:00 AM82.4 °F71.6 °F70 %29.89 in6.2 miCalmPartly Cloudy
8:30 AM84.2 °F71.6 °F66 %29.92 in6.2 miWest (260°)2.3 mphPartly Cloudy
9:00 AM84.2 °F71.6 °F66 %29.92 in6.2 miWSW (250°)3.5 mphPartly Cloudy
9:30 AM86.0 °F71.6 °F62 %29.92 in6.2 miVariable3.5 mphPartly Cloudy
10:00 AM86.0 °F71.6 °F62 %29.89 in6.2 miSW (230°)4.6 mphPartly Cloudy
10:30 AM86.0 °F73.4 °F66 %29.89 in6.2 miWest (270°)3.5 mphPartly Cloudy
11:00 AM86.0 °F71.0 °F52 %29.89 in12.0 miNW (320°)3.5 mphScattered Clouds
11:00 AM86.0 °F71.6 °F62 %29.89 in6.2 miVariable3.5 mphPartly Cloudy
11:30 AM86.0 °F73.4 °F66 %29.86 in6.2 miWNW (300°)3.5 mphPartly Cloudy
12:00 PM87.8 °F73.4 °F62 %29.86 in6.2 miWNW (290°)6.9 mphPartly Cloudy
12:30 PM87.8 °F73.4 °F62 %29.86 in6.2 miWest (280°)6.9 mphPartly Cloudy
1:00 PM87.8 °F73.4 °F62 %29.83 in6.2 miWSW (240°)6.9 mphPartly Cloudy
1:30 PM87.8 °F73.4 °F62 %29.83 in6.2 miSW (220°)11.5 mphPartly Cloudy
2:00 PM87.0 °F73.0 °F54 %29.83 in12.0 miWSW (240°)12.7 mphPartly Cloudy
2:00 PM87.8 °F73.4 °F62 %29.83 in6.2 miWSW (240°)12.7 mphScattered Clouds
2:30 PM87.8 °F71.6 °F58 %29.80 in6.2 miWSW (240°)13.8 mphScattered Clouds
3:00 PM87.8 °F71.6 °F58 %29.80 in6.2 miSSW (200°)9.2 mphScattered Clouds
3:30 PM89.6 °F68.0 °F49 %29.80 in6.2 miSW (230°)3.5 mphScattered Clouds
4:00 PM87.8 °F69.8 °F55 %29.80 in6.2 miNE (50°)11.5 mphScattered Clouds
4:30 PM86.0 °F71.6 °F62 %29.80 in6.2 miNNE (30°)9.2 mphPartly Cloudy
5:00 PM85.0 °F71.0 °F55 %29.82 in12.0 miNNE (30°)15.7 mphScattered Clouds
5:00 PM86.0 °F71.6 °F62 %29.80 in6.2 miNNE (30°)8.1 mphPartly Cloudy
5:30 PM84.2 °F73.4 °F70 %29.80 in6.2 miNorth (360°)6.9 mphScattered Clouds
6:00 PM84.2 °F71.6 °F66 %29.83 in6.2 miVariable3.5 mphPartly Cloudy
6:30 PM82.4 °F71.6 °F70 %29.83 in6.2 miSouth (190°)3.5 mphPartly Cloudy
7:00 PM82.4 °F71.6 °F70 %29.83 in6.2 miSouth (170°)5.8 mphPartly Cloudy
7:30 PM82.4 °F71.6 °F70 %29.86 in6.2 miSouth (170°)4.6 mphPartly Cloudy
8:00 PM82.0 °F71.0 °F63 %29.88 in12.0 miSouth (170°)5.8 mphScattered Clouds
8:00 PM82.4 °F71.6 °F70 %29.86 in6.2 miSouth (170°)5.8 mphPartly Cloudy
8:30 PM82.4 °F71.6 °F70 %29.89 in6.2 miSSE (160°)4.6 mphPartly Cloudy
9:30 PM80.6 °F71.6 °F74 %29.89 in6.2 miEast (80°)3.5 mphPartly Cloudy
10:00 PM80.6 °F71.6 °F74 %29.89 in6.2 miENE (60°)2.3 mphScattered Clouds
10:30 PM80.6 °F71.6 °F74 %29.89 in6.2 miEast (100°)3.5 mphScattered Clouds
11:00 PM79.0 °F71.0 °F71 %29.91 in12.0 miEast (100°)4.5 mphScattered Clouds
11:00 PM78.8 °F71.6 °F78 %29.89 in6.2 miEast (100°)2.3 mphPartly Cloudy
11:30 PM78.8 °F71.6 °F78 %29.89 in6.2 miEast (90°)4.6 mphPartly Cloudy
Hourly data recorded from NTAA, located miles away from Papeete, French Polynesia







STORIES FROM OUR PARTNERS